Home > Weather > Paphos > Past weeks

Flag for Cyprus Past Weather in Paphos, Cyprus — Yesterday and Last 2 Weeks

Now
75 °F

Passing clouds.


Feels Like: 77 °F
Forecast: 62 / 76 °F
Wind: 7 mph from Southwest

Location: Paphos Airport

Current Time: May 27, 2016 at 11:39:00 AM

Latest Report: May 27, 2016 at 11:00 AM


Visibility: N/A

Pressure: 29.77 "Hg

Humidity: 69%

Dew Point: 64 °F

Location of PaphosLocation

Past Weather in Paphos — Graph

°F

Paphos Temperature Yesterday

Maximum temperature yesterday: 75 °F (at 11:00 AM)
Minimum temperature yesterday: 63 °F (at 6:00 AM)
Average temperature yesterday: 70 °F

High & Low Weather Summary for the Past Weeks

 TemperatureHumidityPressure
High95 °F (May 15, 12:30 PM)94% (May 12, 11:00 PM)30.01 "Hg (May 12, 11:00 PM)
Low57 °F (May 17, 5:30 AM)44% (May 15, 12:30 PM)29.71 "Hg (May 26, 4:30 AM)
Average71 °F72%29.88 "Hg
* Reported May 12 10:00 AM — May 27 10:30 AM, Paphos, Weather by CustomWeather, © 2016

Note: Actual official high and low records may vary slightly from our data, if they occured in-between our weather recording intervals... More about our weather records

Advertising

Paphos Weather History for the Previous 24 Hours

Scroll right to see more
 ConditionsComfort  
Time TempWeatherWind HumidityBarometerVisibility
10:30 AM
Fri, May 27
73 °FPassing clouds.7 mph74%29.77 "HgN/A
10:00 AM73 °FPassing clouds.7 mph69%29.77 "HgN/A
9:30 AM73 °FPassing clouds.6 mph69%29.77 "HgN/A
9:00 AM73 °FPassing clouds.6 mph69%29.77 "HgN/A
8:30 AM73 °FPassing clouds.3 mph65%29.77 "HgN/A
8:00 AM72 °FPassing clouds.5 mph57%29.74 "HgN/A
7:30 AM68 °FPassing clouds.3 mph64%29.74 "HgN/A
7:00 AM64 °FScattered clouds.7 mph68%29.74 "HgN/A
6:30 AM63 °FPassing clouds.8 mph73%29.74 "HgN/A
6:00 AM61 °FPassing clouds.8 mph77%29.74 "HgN/A
5:30 AM61 °FPassing clouds.9 mph77%29.74 "HgN/A
5:00 AM61 °FPassing clouds.9 mph77%29.71 "HgN/A
4:30 AM61 °FCool.6 mph77%29.71 "HgN/A
4:00 AM61 °FCool.7 mph83%29.71 "HgN/A
3:30 AM61 °FPassing clouds.6 mph83%29.71 "HgN/A
3:00 AM61 °FPassing clouds.7 mph88%29.74 "HgN/A
2:30 AM61 °FPassing clouds.7 mph88%29.74 "HgN/A
2:00 AM61 °FClear.7 mph88%29.74 "Hg10 mi
1:30 AM63 °FClear.6 mph83%29.74 "Hg10 mi
1:00 AM63 °FClear.6 mph83%29.74 "Hg10 mi
12:30 AM63 °FClear.3 mph77%29.74 "Hg10 mi
12:00 AM63 °FPassing clouds.1 mph77%29.74 "HgN/A
11:30 PM
Thu, May 26
64 °FPassing clouds.6 mph73%29.74 "HgN/A
11:00 PM64 °FPassing clouds.6 mph78%29.77 "HgN/A
10:30 PM66 °FPassing clouds.3 mph73%29.77 "HgN/A
10:00 PM68 °FPassing clouds.6 mph73%29.74 "HgN/A
9:30 PM68 °FPassing clouds.9 mph73%29.74 "HgN/A
9:00 PM68 °FPassing clouds.12 mph78%29.74 "HgN/A
8:30 PM70 °FScattered clouds.13 mph73%29.74 "HgN/A
8:00 PM70 °FScattered clouds.14 mph73%29.71 "HgN/A
7:30 PM70 °FScattered clouds.14 mph78%29.71 "HgN/A
7:00 PM72 °FScattered clouds.12 mph73%29.71 "HgN/A
6:30 PM72 °FPassing clouds.14 mph73%29.71 "HgN/A
6:00 PM73 °FPassing clouds.16 mph69%29.71 "HgN/A
5:30 PM73 °FPassing clouds.15 mph65%29.71 "HgN/A
5:00 PM75 °FPassing clouds.17 mph61%29.71 "HgN/A
4:30 PM75 °FPassing clouds.18 mph61%29.71 "HgN/A
4:00 PM75 °FPassing clouds.20 mph61%29.71 "HgN/A
3:30 PM75 °FPassing clouds.20 mph61%29.71 "HgN/A
3:00 PM75 °FPassing clouds.20 mph61%29.71 "HgN/A
2:30 PM75 °FPassing clouds.20 mph61%29.71 "HgN/A
2:00 PM75 °FPassing clouds.20 mph61%29.71 "HgN/A
1:30 PM75 °FPassing clouds.17 mph61%29.74 "HgN/A
1:00 PM75 °FPassing clouds.18 mph61%29.74 "HgN/A
12:30 PM75 °FPassing clouds.20 mph65%29.74 "HgN/A
12:00 PM75 °FPassing clouds.17 mph65%29.74 "HgN/A
11:30 AM75 °FPassing clouds.14 mph65%29.74 "HgN/A
11:00 AM75 °FPassing clouds.14 mph65%29.74 "HgN/A
Weather by CustomWeather, © 2016

See weather overviewHow to use our weather pages